Location: UMBC
(39.2555°N, 76.7093°W)
Time: 01:34:18
(UTC+02:00)

Amateur Radio Satellites - All Passes

Search period start: 24 April 2017 01:04
Search period end: 25 April 2017 01:04
Location: UMBC, 39.2555°N, 76.7093°W

Satellite Date Start Highest point End Downlink Frequencies (MHz)
Time Altitude Azimuth
NUDT-PHONESAT 24 Apr 01:17:50 01:21:01 28° 263° (W) 01:24:14 437.300
CUTE-I 24 Apr 01:18:38 01:23:37 39° 262° (W) 01:28:38 437.470
KKS-1 24 Apr 01:22:38 01:23:46 11° 298° (WNW) 01:24:54 437.445
CUTE 1.7 + AOD 2 24 Apr 01:24:42 01:28:40 42° 73° (ENE) 01:32:40 437.475
CUBESAT XI-V 24 Apr 01:25:23 01:27:06 12° 298° (WNW) 01:28:48 437.345
AAUSAT CUBESAT 2 24 Apr 01:36:03 01:38:49 18° 67° (ENE) 01:41:35 437.432
XW-2D 24 Apr 01:45:02 01:46:08 11° 269° (W) 01:47:14 145.860 - 145.880
UWE-3 24 Apr 01:48:36 01:51:55 22° 69° (ENE) 01:55:11 435.000/436.395/437.385
DOVE 4 24 Apr 01:49:53 01:52:03 12° 271° (W) 01:54:14 437.250
SEEDS 24 Apr 01:51:24 01:55:28 55° 74° (ENE) 01:59:35 437.485
CUBEBUG 2 24 Apr 01:53:20 01:57:30 42° 73° (ENE) 02:01:34 437.445
HO-68 24 Apr 01:59:28 02:06:36 77° 254° (WSW) 02:13:48 435.675
NO-84 24 Apr 02:04:10 02:06:51 19° 128° (SE) 02:09:24 435.350 FM
STRAND 1 24 Apr 02:09:47 02:14:40 45° 99° (E) 02:19:32 437.568
RS-15 24 Apr 02:22:52 02:29:01 16° 265° (W) 02:35:03 29.354- 29.394
XW-2A 24 Apr 02:23:15 02:26:07 26° 263° (W) 02:28:59 145.665 - 145.685
M-CUBED/EXP-1 PRIME 24 Apr 02:40:41 02:44:59 82° 107° (ESE) 02:48:55 437.505
ZACube-1 24 Apr 02:51:02 02:55:13 63° 76° (ENE) 02:59:21 437.345
DELFI C3 24 Apr 02:52:36 02:54:26 13° 65° (ENE) 02:56:17 145.870
JUGNU 24 Apr 02:55:48 02:57:19 11° 180° (S) 02:58:50 437.505
AO-73 24 Apr 02:59:59 03:04:11 73° 77° (ENE) 03:08:21 145.935
CUTE 1.7 + AOD 2 24 Apr 03:02:20 03:04:41 15° 268° (W) 03:07:04 437.475
AAUSAT CUBESAT 2 24 Apr 03:10:11 03:13:59 36° 263° (W) 03:17:50 437.432
Oscar 11 24 Apr 03:19:42 03:23:59 80° 258° (WSW) 03:28:19 .
O/OREOS (USA 219) 24 Apr 03:23:01 03:27:37 81° 67° (ENE) 03:32:10 437.305
UWE-3 24 Apr 03:24:26 03:28:13 29° 263° (W) 03:31:57 435.000/436.395/437.385
SEEDS 24 Apr 03:30:19 03:31:29 11° 270° (W) 03:32:40 437.485
CUBEBUG 2 24 Apr 03:31:31 03:34:15 16° 267° (W) 03:36:58 437.445
NO-84 24 Apr 03:40:51 03:44:15 39° 321° (NW) 03:47:22 435.350 FM
STRAND 1 24 Apr 03:49:45 03:53:31 21° 295° (WNW) 03:57:16 437.568
HO-68 24 Apr 03:53:20 03:55:22 11° 272° (W) 03:57:25 435.675
TIGRISAT 24 Apr 04:17:54 04:20:43 17° 93° (E) 04:23:32 435.000
OBJECT BX 24 Apr 04:22:27 04:26:03 64° 258° (WSW) 04:29:40 145.990 - 145.960
DELFI C3 24 Apr 04:24:58 04:28:46 46° 261° (W) 04:32:39 145.870
AO-85 24 Apr 04:25:28 04:29:15 43° 55° (NE) 04:33:12 145.980
UNISAT 6 24 Apr 04:37:17 04:41:05 30° 97° (E) 04:44:54 437.425
PRISM 24 Apr 05:06:37 05:10:46 70° 284° (WNW) 05:14:52 437.425
BEESAT 2 24 Apr 05:14:38 05:16:13 12° 42° (NE) 05:17:48 435.950
FO-29 24 Apr 05:15:03 05:20:09 55° 101° (E) 05:25:30 435.910
BEESAT 3 24 Apr 05:22:01 05:25:35 30° 51° (NE) 05:29:07 437.485
LO-87 24 Apr 05:37:28 05:41:03 58° 260° (W) 05:44:39 145.935 - 145.965
QB50P2 24 Apr 05:39:21 05:39:53 10° 90° (E) 05:40:24 145.880/145.840
ESTCUBE 1 24 Apr 05:47:48 05:52:18 86° 80° (E) 05:56:51 437.505/2401.250
TIGRISAT 24 Apr 05:53:35 05:57:31 37° 288° (WNW) 06:01:29 435.000
SRMSAT 24 Apr 06:00:22 06:01:43 11° 183° (S) 06:03:03 437.500
NANOSAT C BR1 24 Apr 06:02:42 06:05:25 17° 93° (E) 06:08:09 145.865
AIST 2D 24 Apr 06:02:48 06:06:03 34° 98° (E) 06:09:17 435.315
AO-85 24 Apr 06:06:55 06:09:19 15° 249° (WSW) 06:11:48 145.980
SPROUT 24 Apr 06:07:52 06:11:44 34° 71° (ENE) 06:15:38 437.525
UNISAT 6 24 Apr 06:14:22 06:17:37 21° 292° (WNW) 06:20:52 437.425
VELOX 1 24 Apr 06:15:43 06:20:00 48° 73° (ENE) 06:24:18 145.980
EO-79 24 Apr 06:27:24 06:31:16 35° 98° (E) 06:35:08 145.935-145.965
50 SAT 24 Apr 06:33:23 06:36:37 37° 73° (ENE) 06:39:53 437.505
DUCHIFAT 1 24 Apr 06:33:27 06:37:16 34° 98° (E) 06:41:03 145.980
BEESAT 2 24 Apr 06:50:27 06:54:32 81° 240° (WSW) 06:58:33 435.950
UKube-1 24 Apr 06:52:40 06:56:29 32° 70° (ENE) 07:00:21 .
BEESAT 3 24 Apr 06:59:50 07:03:01 23° 248° (WSW) 07:06:10 437.485
FO-29 24 Apr 07:01:34 07:04:52 17° 297° (WNW) 07:08:14 435.910
POLYITAN 1 24 Apr 07:05:24 07:09:36 79° 284° (WNW) 07:13:48 437.675
QB50P2 24 Apr 07:11:53 07:16:02 60° 285° (WNW) 07:20:10 145.880/145.840
DX 1 24 Apr 07:18:13 07:22:37 89° 291° (WNW) 07:27:01 434.975-435.025
AIST 2D 24 Apr 07:37:19 07:38:56 13° 293° (WNW) 07:40:33 435.315
NANOSAT C BR1 24 Apr 07:37:24 07:41:15 36° 288° (WNW) 07:45:04 145.865
SPROUT 24 Apr 07:44:41 07:47:43 19° 266° (W) 07:50:46 437.525
BUGSAT 1 24 Apr 07:48:25 07:52:26 81° 103° (ESE) 07:56:26 437.445
Gurwin Techsat 1B 24 Apr 07:50:01 07:53:00 15° 91° (E) 07:56:00 435.225
VELOX 1 24 Apr 07:54:10 07:56:41 15° 268° (W) 07:59:13 145.980
EO-79 24 Apr 08:03:54 08:06:45 18° 293° (WNW) 08:09:36 145.935-145.965
BEESAT 24 Apr 08:07:52 08:11:03 18° 65° (ENE) 08:14:15 436.000
50 SAT 24 Apr 08:08:45 08:09:44 11° 268° (W) 08:10:42 437.505
DUCHIFAT 1 24 Apr 08:09:46 08:12:40 19° 293° (WNW) 08:15:34 145.980
Oscar 19 24 Apr 08:12:51 08:17:50 44° 99° (E) 08:22:46 437.125/150
UKube-1 24 Apr 08:29:14 08:32:32 21° 265° (W) 08:35:51 .
MOZHAYETS 4 24 Apr 08:30:53 08:33:00 13° 63° (ENE) 08:35:07
PCSat 24 Apr 08:35:51 08:40:24 28° 108° (ESE) 08:45:00 145.827
ITUPSAT 1 24 Apr 08:44:47 08:49:14 41° 71° (ENE) 08:53:41 437.325
AO-7 24 Apr 09:18:46 09:24:18 19° 92° (E) 09:29:48 .
Gurwin Techsat 1B 24 Apr 09:28:06 09:33:22 63° 287° (WNW) 09:38:35 435.225
ITAMSAT 1 24 Apr 09:32:27 09:36:19 21° 94° (E) 09:40:10 435.822/435.867
BEESAT 24 Apr 09:43:53 09:48:27 47° 260° (W) 09:53:02 436.000
Oscar 19 24 Apr 09:52:52 09:56:49 22° 295° (WNW) 10:00:46 437.125/150
MOZHAYETS 4 24 Apr 10:05:08 10:09:37 61° 259° (W) 10:14:08
NO-84 24 Apr 10:15:39 10:18:30 71° 43° (NE) 10:21:19 435.350 FM
PCSat 24 Apr 10:18:35 10:23:37 39° 305° (NW) 10:28:42 145.827
ITUPSAT 1 24 Apr 10:23:47 10:27:12 19° 266° (W) 10:30:37 437.325
KKS-1 24 Apr 10:40:00 10:44:24 58° 74° (ENE) 10:48:48 437.445
YUBILEINY 24 Apr 10:40:36 10:48:50 50° 89° (E) 10:57:04 435.215
CUBESAT XI-V 24 Apr 10:47:32 10:52:06 62° 74° (ENE) 10:56:43 437.345
AO-7 24 Apr 11:09:33 11:17:54 84° 289° (WNW) 11:26:14 .
ITAMSAT 1 24 Apr 11:11:03 11:15:57 44° 290° (WNW) 11:20:50 435.822/435.867
STARS 24 Apr 11:20:28 11:24:52 69° 75° (ENE) 11:29:16 437.465
M-CUBED/EXP-1 PRIME 24 Apr 11:54:37 11:55:12 10° 55° (NE) 11:55:47 437.505
DOVE 4 24 Apr 12:10:04 12:13:36 21° 92° (E) 12:16:59 437.250
KKS-1 24 Apr 12:19:26 12:21:17 12° 269° (W) 12:23:09 437.445
RS-15 24 Apr 12:20:17 12:27:52 20° 97° (E) 12:35:33 29.354- 29.394
CUBESAT XI-V 24 Apr 12:28:04 12:29:52 12° 270° (W) 12:31:42 437.345
XW-2F 24 Apr 12:28:42 12:31:20 18° 94° (E) 12:33:59 145.980 - 146.000
YUBILEINY 24 Apr 12:38:07 12:45:48 34° 288° (WNW) 12:53:34 435.215
NUDT-PHONESAT 24 Apr 12:49:02 12:52:10 25° 96° (E) 12:55:18 437.300
SO-50 24 Apr 12:58:41 13:02:51 34° 114° (ESE) 13:06:59 436.795
AO-7 24 Apr 13:04:10 13:09:28 19° 309° (NW) 13:14:46 .
XW-2D 24 Apr 13:15:22 13:19:11 79° 102° (ESE) 13:23:00 145.860 - 145.880
XW-2B 24 Apr 13:22:13 13:26:02 88° 288° (WNW) 13:29:51 145.730 - 145.750
M-CUBED/EXP-1 PRIME 24 Apr 13:24:15 13:28:48 84° 74° (ENE) 13:33:31 437.505
STRAND 1 24 Apr 13:24:29 13:29:29 58° 72° (ENE) 13:34:29 437.568
HO-68 24 Apr 13:29:26 13:34:47 22° 93° (E) 13:40:05 435.675
LilacSat-2 24 Apr 13:29:43 13:33:31 66° 284° (WNW) 13:37:19 437.200
XW-2C 24 Apr 13:34:02 13:37:48 60° 284° (WNW) 13:41:33 145.795 - 145.815
CUTE-I 24 Apr 13:36:13 13:41:33 90° 95° (E) 13:46:52 437.470
KAITUO 1B 24 Apr 13:39:03 13:42:48 66° 285° (WNW) 13:46:33 145.475/437.950
SEEDS 24 Apr 13:39:27 13:39:40 10° 90° (E) 13:39:52 437.485
XW-2A 24 Apr 13:46:18 13:48:35 17° 95° (E) 13:50:52 145.665 - 145.685
DOVE 4 24 Apr 13:47:09 13:51:23 34° 290° (WNW) 13:55:22 437.250
XW-2F 24 Apr 14:02:13 14:05:29 28° 289° (WNW) 14:08:45 145.980 - 146.000
NUDT-PHONESAT 24 Apr 14:23:14 14:25:54 19° 291° (WNW) 14:28:34 437.300
RS-15 24 Apr 14:26:21 14:38:21 83° 118° (ESE) 14:50:47 29.354- 29.394
SO-50 24 Apr 14:39:22 14:43:19 27° 311° (NW) 14:47:15 436.795
ZACube-1 24 Apr 14:41:50 14:43:42 13° 91° (E) 14:45:34 437.345
CUTE 1.7 + AOD 2 24 Apr 14:45:49 14:50:07 80° 283° (WNW) 14:54:24 437.475
AO-73 24 Apr 14:50:05 14:52:24 14° 92° (E) 14:54:43 145.935
AAUSAT CUBESAT 2 24 Apr 14:52:59 14:56:51 35° 97° (E) 15:00:41 437.432
Tancredo 1 24 Apr 14:54:12 14:56:48 24° 133° (SE) 14:59:24 437.200
ISS 24 Apr 14:54:20 14:56:46 20° 132° (SE) 14:59:13 437.550
STRAND 1 24 Apr 15:06:02 15:09:00 15° 268° (W) 15:11:59 437.568
Oscar 11 24 Apr 15:08:37 15:11:51 20° 94° (E) 15:15:03 .
SEEDS 24 Apr 15:11:30 15:15:44 63° 285° (WNW) 15:19:55 437.485
UWE-3 24 Apr 15:14:05 15:18:11 54° 100° (E) 15:22:20 435.000/436.395/437.385
HO-68 24 Apr 15:15:52 15:22:59 66° 290° (WNW) 15:30:05 435.675
TIGRISAT 24 Apr 15:16:19 15:18:41 14° 65° (ENE) 15:21:02 435.000
XW-2A 24 Apr 15:18:39 15:21:17 22° 289° (WNW) 15:23:55 145.665 - 145.685
CUTE-I 24 Apr 15:18:58 15:20:47 12° 301° (WNW) 15:22:36 437.470
CUBEBUG 2 24 Apr 15:21:08 15:25:17 72° 283° (WNW) 15:29:27 437.445
FO-29 24 Apr 15:27:05 15:31:54 23° 66° (ENE) 15:36:21 435.910
UNISAT 6 24 Apr 15:35:15 15:38:51 25° 69° (ENE) 15:42:23 437.425
PRISM 24 Apr 15:54:16 15:58:23 70° 75° (ENE) 16:02:33 437.425
OBJECT BX 24 Apr 15:54:18 15:55:27 11° 92° (E) 15:56:37 145.990 - 145.960
O/OREOS (USA 219) 24 Apr 15:59:04 15:59:46 10° 97° (E) 16:00:29 437.305
DELFI C3 24 Apr 16:03:25 16:06:34 22° 95° (E) 16:09:43 145.870
ZACube-1 24 Apr 16:16:10 16:20:14 49° 286° (WNW) 16:24:21 437.345
AO-73 24 Apr 16:24:50 16:28:49 43° 287° (WNW) 16:32:51 145.935
AAUSAT CUBESAT 2 24 Apr 16:29:08 16:32:01 18° 293° (WNW) 16:34:54 437.432
Tancredo 1 24 Apr 16:29:49 16:32:39 31° 330° (NNW) 16:35:28 437.200
ISS 24 Apr 16:29:57 16:33:03 40° 328° (NNW) 16:36:09 437.550
AIST 2D 24 Apr 16:38:08 16:39:19 11° 67° (ENE) 16:40:31 435.315
RS-15 24 Apr 16:41:32 16:52:22 35° 323° (NW) 17:03:24 29.354- 29.394
Oscar 11 24 Apr 16:44:07 16:48:01 33° 289° (WNW) 16:51:55 .
TIGRISAT 24 Apr 16:50:39 16:54:57 50° 260° (W) 16:59:12 435.000
UWE-3 24 Apr 16:52:28 16:54:11 12° 295° (WNW) 16:55:55 435.000/436.395/437.385
NANOSAT C BR1 24 Apr 16:55:04 16:56:38 12° 64° (ENE) 16:58:12 145.865
HO-68 24 Apr 17:06:41 17:09:22 12° 308° (NW) 17:12:02 435.675
LO-87 24 Apr 17:07:34 17:08:40 11° 92° (E) 17:09:45 145.935 - 145.965
FO-29 24 Apr 17:10:17 17:16:43 53° 259° (W) 17:22:25 435.910
UNISAT 6 24 Apr 17:11:39 17:15:26 27° 264° (W) 17:19:11 437.425
EO-79 24 Apr 17:18:57 17:22:22 24° 69° (ENE) 17:25:45 145.935-145.965
DUCHIFAT 1 24 Apr 17:24:28 17:27:45 23° 68° (ENE) 17:31:02 145.980
PCSat 24 Apr 17:24:29 17:28:35 21° 48° (NE) 17:32:39 145.827
OBJECT BX 24 Apr 17:25:52 17:29:20 41° 286° (WNW) 17:32:47 145.990 - 145.960
O/OREOS (USA 219) 24 Apr 17:33:56 17:38:29 70° 292° (WNW) 17:43:06 437.305
DELFI C3 24 Apr 17:37:58 17:41:18 25° 290° (WNW) 17:44:36 145.870
ESTCUBE 1 24 Apr 17:42:07 17:45:25 19° 94° (E) 17:48:42 437.505/2401.250
POLYITAN 1 24 Apr 17:56:27 18:00:37 65° 75° (ENE) 18:04:48 437.675
QB50P2 24 Apr 18:02:50 18:07:04 85° 77° (ENE) 18:11:19 145.880/145.840
Tancredo 1 24 Apr 18:08:48 18:09:20 10° 349° (N) 18:09:52 437.200
ISS 24 Apr 18:08:51 18:10:13 12° 346° (NNW) 18:11:36 437.550
AIST 2D 24 Apr 18:08:54 18:12:10 37° 262° (W) 18:15:26 435.315
NANOSAT C BR1 24 Apr 18:27:41 18:31:50 59° 260° (W) 18:36:00 145.865
BUGSAT 1 24 Apr 18:36:37 18:40:37 46° 73° (ENE) 18:44:35 437.445
LO-87 24 Apr 18:38:56 18:42:17 38° 287° (WNW) 18:45:36 145.935 - 145.965
AO-85 24 Apr 18:40:00 18:42:57 18° 112° (ESE) 18:45:48 145.980
EO-79 24 Apr 18:54:26 18:58:00 26° 264° (W) 19:01:35 145.935-145.965
DUCHIFAT 1 24 Apr 18:59:39 19:03:15 28° 263° (W) 19:06:54 145.980
RS-15 24 Apr 19:01:55 19:10:16 20° 358° (N) 19:18:33 29.354- 29.394
PCSat 24 Apr 19:07:02 19:12:23 60° 246° (WSW) 19:17:42 145.827
DX 1 24 Apr 19:08:34 19:11:22 17° 93° (E) 19:14:09 434.975-435.025
Gurwin Techsat 1B 24 Apr 19:09:41 19:13:48 23° 65° (ENE) 19:17:54 435.225
ESTCUBE 1 24 Apr 19:18:08 19:22:19 37° 289° (WNW) 19:26:29 437.505/2401.250
Oscar 19 24 Apr 19:28:31 19:33:32 58° 73° (ENE) 19:38:38 437.125/150
SPROUT 24 Apr 19:29:47 19:34:02 78° 103° (ESE) 19:38:16 437.525
50 SAT 24 Apr 19:30:30 19:33:53 46° 100° (E) 19:37:14 437.505
VELOX 1 24 Apr 19:42:49 19:47:15 72° 285° (WNW) 19:51:38 145.980
ISS 24 Apr 19:47:33 19:47:53 10° 7° (N) 19:48:13 437.550
BUGSAT 1 24 Apr 20:14:12 20:16:12 13° 268° (W) 20:18:10 437.445
UKube-1 24 Apr 20:15:54 20:20:13 67° 102° (ESE) 20:24:29 .
AO-7 24 Apr 20:16:45 20:23:19 27° 56° (ENE) 20:29:54 .
AO-85 24 Apr 20:19:03 20:23:05 40° 306° (NW) 20:26:56 145.980
BEESAT 2 24 Apr 20:41:23 20:44:24 21° 112° (ESE) 20:47:29 435.950
DX 1 24 Apr 20:43:37 20:47:43 40° 288° (WNW) 20:51:46 434.975-435.025
BEESAT 3 24 Apr 20:47:28 20:51:22 73° 119° (ESE) 20:55:21 437.485
Gurwin Techsat 1B 24 Apr 20:48:24 20:53:25 44° 261° (W) 20:58:30 435.225
ITUPSAT 1 24 Apr 20:48:43 20:49:58 11° 90° (E) 20:51:14 437.325
ITAMSAT 1 24 Apr 20:49:13 20:53:41 30° 67° (ENE) 20:58:09 435.822/435.867
YUBILEINY 24 Apr 20:52:33 20:59:09 23° 66° (ENE) 21:05:44 435.215
Oscar 19 24 Apr 21:10:09 21:13:12 16° 268° (W) 21:16:18 437.125/150
RS-15 24 Apr 21:17:51 21:28:29 32° 33° (NNE) 21:38:43 29.354- 29.394
Tancredo 1 24 Apr 21:20:29 21:23:12 27° 29° (NNE) 21:25:54 437.200
ISS 24 Apr 21:22:32 21:25:17 24° 27° (NNE) 21:28:01 437.550
SO-50 24 Apr 21:30:54 21:34:36 24° 48° (NE) 21:38:17 436.795
BEESAT 24 Apr 21:44:45 21:49:20 46° 100° (E) 21:53:54 436.000
UKube-1 24 Apr 21:54:22 21:55:39 11° 298° (WNW) 21:56:55 .
MOZHAYETS 4 24 Apr 22:01:12 22:05:21 33° 97° (E) 22:09:30
AO-7 24 Apr 22:07:09 22:15:24 69° 255° (WSW) 22:23:41 .
BEESAT 2 24 Apr 22:18:25 22:21:59 31° 308° (NW) 22:25:36 435.950
ITUPSAT 1 24 Apr 22:23:30 22:28:16 72° 286° (WNW) 22:33:01 437.325
BEESAT 3 24 Apr 22:27:42 22:29:26 12° 317° (NW) 22:31:11 437.485
ITAMSAT 1 24 Apr 22:28:27 22:33:03 31° 263° (W) 22:37:39 435.822/435.867
KKS-1 24 Apr 22:34:13 22:35:43 11° 91° (E) 22:37:13 437.445
CUBESAT XI-V 24 Apr 22:46:09 22:49:14 17° 92° (E) 22:52:17 437.345
YUBILEINY 24 Apr 22:48:05 22:56:48 75° 266° (W) 23:05:33 435.215
Tancredo 1 24 Apr 22:56:20 22:59:08 31° 225° (SW) 23:01:55 437.200
ISS 24 Apr 22:58:46 23:01:51 40° 224° (SW) 23:04:56 437.550
SO-50 24 Apr 23:10:59 23:15:08 37° 245° (WSW) 23:19:17 436.795
STARS 24 Apr 23:12:36 23:14:39 13° 92° (E) 23:16:40 437.465
DOVE 4 24 Apr 23:13:30 23:17:40 24° 67° (ENE) 23:21:46 437.250
CUTE-I 24 Apr 23:19:27 23:22:48 17° 62° (ENE) 23:26:10 437.470
BEESAT 24 Apr 23:23:29 23:26:43 19° 295° (WNW) 23:29:59 436.000
NUDT-PHONESAT 24 Apr 23:29:40 23:30:29 11° 65° (ENE) 23:31:17 437.300
RS-15 24 Apr 23:30:34 23:42:53 88° 60° (ENE) 23:54:34 29.354- 29.394
MOZHAYETS 4 24 Apr 23:38:41 23:42:19 23° 292° (WNW) 23:45:57
XW-2D 24 Apr 23:55:43 23:59:00 30° 72° (ENE) 00:02:18 145.860 - 145.880
HO-68 24 Apr 23:59:05 00:03:03 16° 54° (NE) 00:07:02 435.675
XW-2B 25 Apr 00:02:26 00:05:51 35° 73° (ENE) 00:09:16 145.730 - 145.750
AO-7 25 Apr 00:07:37 00:09:30 11° 272° (W) 00:11:23 .
KKS-1 25 Apr 00:08:16 00:12:38 60° 286° (WNW) 00:16:59 437.445
LilacSat-2 25 Apr 00:10:17 00:13:53 47° 74° (ENE) 00:17:31 437.200
XW-2C 25 Apr 00:13:59 00:17:36 50° 75° (ENE) 00:21:14 145.795 - 145.815
KAITUO 1B 25 Apr 00:17:51 00:21:21 43° 74° (ENE) 00:24:52 145.475/437.950
CUBESAT XI-V 25 Apr 00:22:18 00:26:49 46° 287° (WNW) 00:31:18 437.345
XW-2F 25 Apr 00:41:17 00:44:58 71° 259° (W) 00:48:41 145.980 - 146.000
STARS 25 Apr 00:47:01 00:51:16 51° 287° (WNW) 00:55:29 437.465
YUBILEINY 25 Apr 00:48:48 00:51:57 12° 285° (WNW) 00:55:08 435.215
DOVE 4 25 Apr 00:49:59 00:55:00 43° 262° (W) 01:00:01 437.250
